| time (UTC) | temp F | wind direction | speed MPH | gust MPH | rain 1hr in | rain 24hr in | rain mn in | humidity % | barometer mb |
| 20260905104153 | 69 | 323 | 6.0 | 16.0 | 0.00 | 0.00 | 0.05 | 57 | 1017.3 |
| 20260905103653 | 69 | 298 | 5.0 | 10.0 | 0.00 | 0.00 | 0.05 | 57 | 1017.3 |
| 20260905103154 | 69 | 323 | 13.0 | 17.0 | 0.00 | 0.00 | 0.05 | 57 | 1017.3 |
| 20260905102653 | 71 | 334 | 10.0 | 13.0 | 0.00 | 0.00 | 0.05 | 56 | 1017.3 |
| 20260905102153 | 70 | 297 | 7.0 | 10.0 | 0.00 | 0.00 | 0.05 | 56 | 1016.9 |
| 20260905101653 | 73 | 201 | 4.0 | 5.0 | 0.00 | 0.00 | 0.05 | 59 | 1016.9 |
| 20260905101153 | 71 | 312 | 13.0 | 14.0 | 0.00 | 0.00 | 0.05 | 56 | 1016.9 |
| 20260905100654 | 70 | 278 | 7.0 | 8.0 | 0.00 | 0.00 | 0.05 | 58 | 1016.9 |
| 20260905100153 | 69 | 270 | 10.0 | 15.0 | 0.00 | 0.00 | 0.05 | 61 | 1016.9 |
| 20260905095653 | 69 | 297 | 18.0 | 25.0 | 0.00 | 0.00 | 0.05 | 61 | 1017.3 |
| 20260905095153 | 68 | 320 | 10.0 | 10.0 | 0.00 | 0.00 | 0.05 | 62 | 1017.3 |
| 20260905094653 | 67 | 296 | 6.0 | 8.0 | 0.00 | 0.00 | 0.05 | 63 | 1016.9 |
| 20260905094153 | 67 | 289 | 11.0 | 18.0 | 0.00 | 0.00 | 0.05 | 65 | 1016.9 |
| 20260905093654 | 67 | 291 | 8.0 | 10.0 | 0.00 | 0.00 | 0.05 | 64 | 1017.3 |
| 20260905093153 | 69 | 290 | 11.0 | 13.0 | 0.00 | 0.00 | 0.05 | 62 | 1017.3 |
| 20260905092653 | 71 | 319 | 11.0 | 16.0 | 0.00 | 0.00 | 0.05 | 64 | 1017.3 |
| 20260905092153 | 71 | 310 | 4.0 | 6.0 | 0.00 | 0.00 | 0.05 | 63 | 1016.9 |
| 20260905091653 | 68 | 296 | 6.0 | 10.0 | 0.00 | 0.00 | 0.05 | 66 | 1016.9 |
| 20260905091153 | 69 | 312 | 7.0 | 10.0 | 0.00 | 0.00 | 0.05 | 67 | 1016.9 |
| 20260905090653 | 68 | 315 | 8.0 | 9.0 | 0.00 | 0.00 | 0.05 | 66 | 1016.9 |
| 20260905090153 | 67 | 295 | 9.0 | 13.0 | 0.00 | 0.00 | 0.05 | 67 | 1016.9 |
| 20260905085653 | 67 | 273 | 7.0 | 12.0 | 0.00 | 0.00 | 0.05 | 67 | 1017.3 |
| 20260905085153 | 67 | 275 | 13.0 | 14.0 | 0.00 | 0.00 | 0.05 | 69 | 1017.3 |
| 20260905084653 | 67 | 297 | 17.0 | 22.0 | 0.00 | 0.00 | 0.05 | 66 | 1017.3 |
| 20260905084153 | 67 | 313 | 7.0 | 9.0 | 0.00 | 0.00 | 0.05 | 67 | 1017.3 |
| 20260905083653 | 67 | 301 | 11.0 | 13.0 | 0.00 | 0.00 | 0.05 | 68 | 1017.3 |
| 20260905083153 | 65 | 279 | 7.0 | 9.0 | 0.00 | 0.00 | 0.05 | 72 | 1017.3 |
| 20260905082653 | 65 | 275 | 12.0 | 12.0 | 0.00 | 0.00 | 0.05 | 73 | 1017.3 |
| 20260905082153 | 65 | 247 | 4.0 | 5.0 | 0.00 | 0.00 | 0.05 | 73 | 1017.3 |
| 20260905081653 | 66 | 344 | 5.0 | 6.0 | 0.00 | 0.00 | 0.05 | 71 | 1017.3 |
| 20260905081153 | 67 | 306 | 4.0 | 6.0 | 0.00 | 0.00 | 0.05 | 71 | 1017.3 |
| 20260905080653 | 66 | 279 | 7.0 | 13.0 | 0.00 | 0.00 | 0.05 | 72 | 1017.3 |
| 20260905080153 | 65 | 294 | 11.0 | 11.0 | 0.00 | 0.00 | 0.05 | 72 | 1017.3 |
| 20260905075653 | 65 | 285 | 11.0 | 13.0 | 0.00 | 0.00 | 0.05 | 75 | 1017.3 |
| 20260905075153 | 64 | 298 | 6.0 | 7.0 | 0.00 | 0.00 | 0.05 | 78 | 1017.3 |
| 20260905074653 | 63 | 340 | 12.0 | 13.0 | 0.00 | 0.00 | 0.05 | 79 | 1017.3 |
| 20260905074153 | 62 | 327 | 9.0 | 9.0 | 0.00 | 0.00 | 0.05 | 81 | 1017.3 |
| 20260905073653 | 62 | 335 | 8.0 | 10.0 | 0.00 | 0.00 | 0.05 | 82 | 1016.9 |
| 20260905073153 | 62 | 322 | 2.0 | 6.0 | 0.00 | 0.00 | 0.05 | 84 | 1016.9 |
| 20260905072653 | 62 | 317 | 11.0 | 11.0 | 0.00 | 0.00 | 0.05 | 84 | 1016.9 |
| 20260905072153 | 62 | 331 | 6.0 | 10.0 | 0.00 | 0.00 | 0.05 | 86 | 1016.9 |
| 20260905071653 | 61 | 308 | 6.0 | 7.0 | 0.00 | 0.00 | 0.05 | 86 | 1016.9 |
| 20260905071153 | 61 | 312 | 8.0 | 12.0 | 0.00 | 0.00 | 0.05 | 87 | 1016.6 |
| 20260905070653 | 61 | 319 | 6.0 | 8.0 | 0.00 | 0.00 | 0.05 | 86 | 1016.6 |
| 20260905070153 | 60 | 295 | 6.0 | 10.0 | 0.00 | 0.00 | 0.05 | 87 | 1016.6 |
| 20260905065653 | 60 | 330 | 5.0 | 5.0 | 0.00 | 0.00 | 0.05 | 88 | 1016.6 |
| 20260905065153 | 60 | 312 | 8.0 | 13.0 | 0.00 | 0.00 | 0.05 | 88 | 1016.6 |
| 20260905064653 | 60 | 312 | 3.0 | 6.0 | 0.00 | 0.00 | 0.05 | 89 | 1016.6 |
| 20260905064153 | 60 | 315 | 4.0 | 7.0 | 0.00 | 0.00 | 0.05 | 88 | 1016.6 |
| 20260905063653 | 60 | 274 | 9.0 | 10.0 | 0.00 | 0.00 | 0.05 | 88 | 1015.9 |
| 20260905063153 | 61 | 332 | 6.0 | 7.0 | 0.00 | 0.00 | 0.05 | 89 | 1015.9 |
| 20260905062653 | 60 | 321 | 8.0 | 10.0 | 0.00 | 0.00 | 0.05 | 88 | 1015.9 |
| 20260905062153 | 60 | 353 | 5.0 | 6.0 | 0.00 | 0.00 | 0.05 | 89 | 1016.3 |
| 20260905061653 | 60 | 323 | 7.0 | 8.0 | 0.00 | 0.00 | 0.05 | 89 | 1016.3 |
| 20260905061153 | 60 | 334 | 4.0 | 5.0 | 0.00 | 0.00 | 0.05 | 90 | 1015.9 |
| 20260905060653 | 60 | 332 | 3.0 | 3.0 | 0.00 | 0.00 | 0.05 | 90 | 1015.9 |
| 20260905060154 | 60 | 303 | 6.0 | 7.0 | 0.00 | 0.00 | 0.05 | 90 | 1015.9 |
| 20260905055653 | 60 | 292 | 4.0 | 8.0 | 0.00 | 0.00 | 0.05 | 91 | 1015.9 |
| 20260905055153 | 60 | 281 | 3.0 | 3.0 | 0.00 | 0.00 | 0.05 | 91 | 1015.9 |
| 20260905054653 | 60 | 331 | 7.0 | 10.0 | 0.00 | 0.00 | 0.05 | 91 | 1015.2 |
| 20260905054153 | 60 | 304 | 5.0 | 8.0 | 0.00 | 0.00 | 0.05 | 92 | 1015.2 |
| 20260905053653 | 60 | 291 | 7.0 | 10.0 | 0.00 | 0.00 | 0.05 | 93 | 1015.2 |
| 20260905053153 | 60 | 342 | 3.0 | 3.0 | 0.00 | 0.00 | 0.05 | 93 | 1015.2 |
| 20260905052653 | 60 | 303 | 2.0 | 2.0 | 0.00 | 0.00 | 0.05 | 94 | 1015.2 |
| 20260905052153 | 60 | 314 | 1.0 | 2.0 | 0.00 | 0.00 | 0.05 | 94 | 1015.2 |
| 20260905051653 | 60 | 203 | 4.0 | 7.0 | 0.00 | 0.00 | 0.05 | 94 | 1015.2 |
| 20260905051153 | 60 | 315 | 3.0 | 3.0 | 0.05 | 0.00 | 0.05 | 94 | 1015.2 |
| 20260905050653 | 60 | 301 | 5.0 | 6.0 | 0.05 | 0.00 | 0.05 | 94 | 1015.2 |
| 20260905050153 | 60 | 338 | 4.0 | 4.0 | 0.00 | 0.00 | 0.05 | 94 | 1014.9 |
| 20260905045653 | 60 | 306 | 1.0 | 2.0 | 0.00 | 0.00 | 0.05 | 94 | 1014.9 |
| 20260905045153 | 60 | 310 | 5.0 | 8.0 | 0.05 | 0.00 | 0.05 | 93 | 1014.9 |
| 20260905044653 | 60 | 317 | 3.0 | 6.0 | 0.05 | 0.00 | 0.05 | 94 | 1014.9 |
| 20260905044153 | 60 | 333 | 4.0 | 6.0 | 0.00 | 0.00 | 0.03 | 94 | 1014.9 |
| 20260905043653 | 61 | 307 | 4.0 | 6.0 | 0.00 | 0.00 | 0.03 | 94 | 1014.6 |
| 20260905043153 | 61 | 279 | 3.0 | 3.0 | 0.00 | 0.00 | 0.03 | 94 | 1014.6 |
| 20260905042653 | 61 | 266 | 8.0 | 10.0 | 0.00 | 0.00 | 0.03 | 94 | 1014.6 |
| 20260905042153 | 61 | 281 | 4.0 | 6.0 | 0.00 | 0.00 | 0.03 | 94 | 1014.6 |
| 20260905041653 | 61 | 307 | 4.0 | 6.0 | 0.00 | 0.00 | 0.03 | 94 | 1014.6 |
| 20260905041153 | 61 | 280 | 5.0 | 6.0 | 0.00 | 0.00 | 0.03 | 94 | 1014.6 |
| 20260905040653 | 61 | 328 | 5.0 | 6.0 | 0.00 | 0.00 | 0.03 | 94 | 1014.6 |
| 20260905040153 | 61 | 291 | 6.0 | 6.0 | 0.00 | 0.00 | 0.03 | 94 | 1014.2 |
| 20260905035654 | 61 | 321 | 3.0 | 5.0 | 0.00 | 0.00 | 0.03 | 94 | 1014.2 |
| 20260905035153 | 61 | 283 | 1.0 | 3.0 | 0.00 | 0.00 | 0.03 | 95 | 1014.2 |
| 20260905034653 | 61 | 300 | 3.0 | 4.0 | 0.00 | 0.00 | 0.03 | 94 | 1014.2 |
| 20260905034153 | 61 | 297 | 6.0 | 8.0 | 0.00 | 0.00 | 0.03 | 94 | 1014.2 |
| 20260905033653 | 61 | 317 | 3.0 | 5.0 | 0.00 | 0.00 | 0.03 | 95 | 1013.9 |
| 20260905033153 | 61 | 323 | 4.0 | 6.0 | 0.00 | 0.00 | 0.03 | 95 | 1013.9 |
| 20260905032653 | 61 | 281 | 3.0 | 3.0 | 0.00 | 0.00 | 0.03 | 95 | 1013.9 |
| 20260905032153 | 61 | 308 | 2.0 | 3.0 | 0.00 | 0.00 | 0.03 | 95 | 1013.9 |
| 20260905031653 | 61 | 275 | 3.0 | 4.0 | 0.00 | 0.00 | 0.03 | 94 | 1013.9 |
| 20260905031153 | 61 | 317 | 2.0 | 2.0 | 0.00 | 0.00 | 0.03 | 95 | 1013.6 |
| 20260905030653 | 61 | 246 | 4.0 | 4.0 | 0.00 | 0.00 | 0.03 | 94 | 1013.6 |
| 20260905030153 | 61 | 314 | 2.0 | 3.0 | 0.00 | 0.00 | 0.03 | 94 | 1013.9 |
| 20260905025653 | 61 | 250 | 2.0 | 2.0 | 0.00 | 0.00 | 0.03 | 94 | 1013.9 |
| 20260905025153 | 61 | 280 | 3.0 | 3.0 | 0.00 | 0.00 | 0.03 | 94 | 1013.9 |
| 20260905024653 | 62 | 312 | 3.0 | 4.0 | 0.00 | 0.00 | 0.03 | 93 | 1013.9 |
| 20260905024153 | 61 | 276 | 8.0 | 10.0 | 0.00 | 0.00 | 0.03 | 93 | 1013.9 |
| 20260905023653 | 61 | 318 | 4.0 | 6.0 | 0.00 | 0.00 | 0.03 | 94 | 1013.9 |
| 20260905023153 | 62 | 299 | 5.0 | 6.0 | 0.00 | 0.00 | 0.03 | 93 | 1013.9 |
| 20260905022653 | 62 | 341 | 4.0 | 5.0 | 0.00 | 0.00 | 0.03 | 93 | 1013.9 |
| 20260905022153 | 62 | 241 | 3.0 | 5.0 | 0.00 | 0.00 | 0.03 | 94 | 1013.9 |
| 20260905021653 | 62 | 253 | 6.0 | 7.0 | 0.00 | 0.00 | 0.03 | 93 | 1013.9 |
| 20260905021153 | 62 | 314 | 6.0 | 7.0 | 0.00 | 0.00 | 0.03 | 93 | 1013.9 |
| 20260905020653 | 62 | 283 | 11.0 | 13.0 | 0.00 | 0.00 | 0.03 | 92 | 1013.9 |
| 20260905020153 | 62 | 309 | 4.0 | 7.0 | 0.00 | 0.00 | 0.03 | 94 | 1013.6 |
| 20260905015653 | 62 | 307 | 7.0 | 13.0 | 0.00 | 0.00 | 0.03 | 93 | 1013.6 |
| 20260905015153 | 62 | 319 | 5.0 | 9.0 | 0.00 | 0.00 | 0.03 | 93 | 1013.6 |
| 20260905014653 | 62 | 340 | 7.0 | 12.0 | 0.00 | 0.00 | 0.03 | 93 | 1013.2 |
| 20260905014153 | 62 | 302 | 7.0 | 9.0 | 0.00 | 0.00 | 0.03 | 94 | 1013.2 |
| 20260905013653 | 62 | 254 | 5.0 | 7.0 | 0.00 | 0.00 | 0.03 | 94 | 1013.9 |
| 20260905013153 | 61 | 280 | 5.0 | 6.0 | 0.00 | 0.00 | 0.03 | 95 | 1013.9 |
| 20260905012653 | 61 | 319 | 3.0 | 4.0 | 0.05 | 0.00 | 0.03 | 95 | 1013.9 |
| 20260905012153 | 61 | 326 | 2.0 | 2.0 | 0.05 | 0.00 | 0.03 | 95 | 1013.9 |
| 20260905011653 | 61 | 300 | 3.0 | 3.0 | 0.00 | 0.00 | 0.02 | 95 | 1013.9 |
| 20260905011153 | 61 | 285 | 3.0 | 3.0 | 0.00 | 0.00 | 0.02 | 94 | 1013.6 |
| 20260905010653 | 62 | 271 | 5.0 | 7.0 | 0.00 | 0.00 | 0.02 | 93 | 1013.6 |
| 20260905010153 | 62 | 282 | 7.0 | 10.0 | 0.10 | 0.00 | 0.02 | 92 | 1013.9 |
| 20260905005653 | 62 | 276 | 8.0 | 10.0 | 0.20 | 0.00 | 0.02 | 91 | 1013.9 |
| 20260905005153 | 62 | 310 | 4.0 | 6.0 | 0.15 | 0.00 | 0.01 | 88 | 1013.9 |
| 20260905004653 | 63 | 316 | 6.0 | 6.0 | 0.00 | 0.00 | 0.00 | 85 | 1013.2 |
| 20260905004153 | 63 | 327 | 6.0 | 8.0 | 0.00 | 0.00 | 0.00 | 83 | 1013.2 |
| 20260905003653 | 64 | 310 | 9.0 | 11.0 | 0.00 | 0.00 | 0.00 | 79 | 1012.5 |
| 20260905003153 | 65 | 332 | 6.0 | 10.0 | 0.00 | 0.00 | 0.00 | 75 | 1012.5 |
| 20260905002653 | 65 | 329 | 2.0 | 3.0 | 0.00 | 0.00 | 0.00 | 73 | 1012.5 |
| 20260905002153 | 65 | 297 | 6.0 | 6.0 | 0.00 | 0.00 | 0.00 | 72 | 1013.6 |
| 20260905001653 | 66 | 341 | 14.0 | 17.0 | 0.00 | 0.00 | 0.00 | 72 | 1013.6 |
| 20260905001153 | 66 | 322 | 12.0 | 16.0 | 0.00 | 0.00 | 0.00 | 70 | 1013.2 |
| 20260905000653 | 67 | 324 | 10.0 | 15.0 | 0.00 | 0.00 | 0.00 | 69 | 1013.2 |
| 20260905000153 | 67 | 280 | 9.0 | 15.0 | 0.00 | 0.00 | 0.00 | 67 | 1013.2 |
| 20260904235653 | 67 | 276 | 8.0 | 8.0 | 0.00 | 0.00 | 0.00 | 67 | 1013.2 |
| 20260904235153 | 67 | 321 | 9.0 | 10.0 | 0.00 | 0.00 | 0.00 | 66 | 1013.2 |
| 20260904234653 | 67 | 354 | 13.0 | 17.0 | 0.00 | 0.00 | 0.00 | 67 | 1012.5 |
| 20260904234153 | 67 | 302 | 13.0 | 17.0 | 0.00 | 0.00 | 0.00 | 66 | 1012.5 |
| 20260904233653 | 68 | 355 | 15.0 | 17.0 | 0.00 | 0.00 | 0.00 | 66 | 1012.5 |
| 20260904233153 | 68 | 347 | 21.0 | 23.0 | 0.00 | 0.00 | 0.00 | 64 | 1012.5 |
| 20260904232653 | 69 | 340 | 15.0 | 18.0 | 0.00 | 0.00 | 0.00 | 64 | 1012.5 |
| 20260904232153 | 69 | 358 | 13.0 | 16.0 | 0.00 | 0.00 | 0.00 | 64 | 1012.2 |
| 20260904231653 | 69 | 335 | 7.0 | 8.0 | 0.00 | 0.00 | 0.00 | 64 | 1012.2 |
| 20260904231153 | 69 | 301 | 5.0 | 7.0 | 0.00 | 0.00 | 0.00 | 65 | 1012.2 |
| 20260904230653 | 69 | 310 | 12.0 | 13.0 | 0.00 | 0.00 | 0.00 | 64 | 1012.2 |
| 20260904230153 | 69 | 344 | 10.0 | 13.0 | 0.00 | 0.00 | 0.00 | 64 | 1012.2 |
| 20260904225653 | 69 | 349 | 15.0 | 18.0 | 0.00 | 0.00 | 0.00 | 64 | 1012.2 |
| 20260904225153 | 69 | 264 | 12.0 | 17.0 | 0.00 | 0.00 | 0.00 | 64 | 1012.2 |
| 20260904224653 | 70 | 333 | 19.0 | 31.0 | 0.00 | 0.00 | 0.00 | 65 | 1011.5 |
| 20260904224153 | 70 | 311 | 10.0 | 15.0 | 0.00 | 0.00 | 0.00 | 67 | 1011.5 |
| 20260904223653 | 71 | 313 | 7.0 | 8.0 | 0.00 | 0.00 | 0.00 | 66 | 1011.5 |
| 20260904223153 | 71 | 344 | 3.0 | 10.0 | 0.00 | 0.00 | 0.00 | 66 | 1011.5 |
| 20260904222653 | 71 | 305 | 4.0 | 10.0 | 0.00 | 0.00 | 0.00 | 67 | 1011.5 |
| 20260904222153 | 72 | 310 | 10.0 | 10.0 | 0.00 | 0.00 | 0.00 | 67 | 1011.5 |
| 20260904221653 | 73 | 298 | 5.0 | 11.0 | 0.00 | 0.00 | 0.00 | 67 | 1011.5 |
| 20260904221153 | 73 | 301 | 6.0 | 6.0 | 0.00 | 0.00 | 0.00 | 67 | 1011.2 |
| 20260904220653 | 73 | 302 | 13.0 | 16.0 | 0.00 | 0.00 | 0.00 | 66 | 1011.2 |
| 20260904220153 | 74 | 310 | 9.0 | 10.0 | 0.00 | 0.00 | 0.00 | 65 | 1011.2 |
| 20260904215653 | 74 | 339 | 18.0 | 22.0 | 0.00 | 0.00 | 0.00 | 64 | 1011.2 |
| 20260904215153 | 74 | 320 | 9.0 | 10.0 | 0.00 | 0.00 | 0.00 | 64 | 1011.2 |
| 20260904214653 | 75 | 329 | 16.0 | 19.0 | 0.00 | 0.00 | 0.00 | 63 | 1010.8 |
| 20260904214153 | 75 | 306 | 15.0 | 24.0 | 0.00 | 0.00 | 0.00 | 61 | 1010.8 |
| 20260904213653 | 76 | 330 | 14.0 | 17.0 | 0.00 | 0.00 | 0.00 | 58 | 1009.5 |
| 20260904213153 | 76 | 263 | 11.0 | 16.0 | 0.00 | 0.00 | 0.00 | 59 | 1009.5 |
| 20260904212653 | 75 | 298 | 7.0 | 8.0 | 0.00 | 0.00 | 0.00 | 59 | 1009.5 |
| 20260904212153 | 74 | 272 | 8.0 | 11.0 | 0.00 | 0.00 | 0.00 | 61 | 1009.5 |
| 20260904211653 | 74 | 187 | 6.0 | 10.0 | 0.00 | 0.00 | 0.00 | 61 | 1009.5 |
| 20260904211153 | 74 | 327 | 2.0 | 5.0 | 0.00 | 0.00 | 0.00 | 61 | 1009.5 |
| 20260904210653 | 75 | 359 | 2.0 | 6.0 | 0.00 | 0.00 | 0.00 | 61 | 1009.5 |
| 20260904210153 | 74 | 215 | 4.0 | 6.0 | 0.00 | 0.00 | 0.00 | 61 | 1009.5 |
| 20260904205653 | 74 | 313 | 7.0 | 13.0 | 0.00 | 0.00 | 0.00 | 61 | 1009.5 |
| 20260904205153 | 74 | 302 | 8.0 | 10.0 | 0.00 | 0.00 | 0.00 | 61 | 1009.5 |
| 20260904204653 | 74 | 327 | 5.0 | 9.0 | 0.00 | 0.00 | 0.00 | 61 | 1009.5 |
| 20260904204153 | 74 | 274 | 4.0 | 6.0 | 0.00 | 0.00 | 0.00 | 61 | 1009.5 |
| 20260904203653 | 74 | 246 | 6.0 | 10.0 | 0.00 | 0.00 | 0.00 | 62 | 1009.5 |
| 20260904203153 | 74 | 287 | 4.0 | 5.0 | 0.00 | 0.00 | 0.00 | 63 | 1009.5 |
| 20260904202653 | 74 | 268 | 3.0 | 4.0 | 0.00 | 0.00 | 0.00 | 63 | 1009.5 |
| 20260904202153 | 73 | 279 | 5.0 | 6.0 | 0.00 | 0.00 | 0.00 | 64 | 1009.5 |
| 20260904201653 | 73 | 306 | 3.0 | 6.0 | 0.00 | 0.00 | 0.00 | 65 | 1009.5 |
| 20260904201153 | 72 | 289 | 1.0 | 3.0 | 0.00 | 0.00 | 0.00 | 68 | 1009.5 |
| 20260904200653 | 73 | 328 | 2.0 | 7.0 | 0.00 | 0.00 | 0.00 | 66 | 1009.5 |
| 20260904200153 | 72 | 324 | 0.0 | 2.0 | 0.00 | 0.00 | 0.00 | 67 | 1009.8 |
| 20260904195653 | 72 | 310 | 2.0 | 2.0 | 0.00 | 0.00 | 0.00 | 68 | 1009.8 |
| 20260904195153 | 72 | 268 | 2.0 | 5.0 | 0.00 | 0.00 | 0.00 | 67 | 1009.8 |
| 20260904194653 | 73 | 291 | 4.0 | 5.0 | 0.00 | 0.00 | 0.00 | 66 | 1009.8 |
| 20260904194153 | 73 | 54 | 1.0 | 2.0 | 0.00 | 0.00 | 0.00 | 66 | 1009.8 |
| 20260904193653 | 73 | 245 | 6.0 | 6.0 | 0.00 | 0.00 | 0.00 | 66 | 1009.8 |
| 20260904193153 | 73 | 279 | 4.0 | 4.0 | 0.00 | 0.00 | 0.00 | 66 | 1009.8 |
| 20260904192653 | 73 | 210 | 4.0 | 4.0 | 0.00 | 0.00 | 0.00 | 65 | 1009.8 |
| 20260904192153 | 74 | 320 | 3.0 | 5.0 | 0.00 | 0.00 | 0.00 | 65 | 1010.5 |
| 20260904191653 | 73 | 316 | 6.0 | 6.0 | 0.00 | 0.00 | 0.00 | 66 | 1010.5 |
| 20260904191153 | 73 | 306 | 3.0 | 5.0 | 0.00 | 0.00 | 0.00 | 65 | 1010.5 |
| 20260904190653 | 73 | 271 | 3.0 | 6.0 | 0.00 | 0.00 | 0.00 | 65 | 1010.5 |
| 20260904190153 | 73 | 266 | 5.0 | 10.0 | 0.00 | 0.00 | 0.00 | 65 | 1010.8 |
| 20260904185653 | 73 | 205 | 5.0 | 8.0 | 0.00 | 0.00 | 0.00 | 67 | 1010.8 |
| 20260904185153 | 73 | 166 | 5.0 | 7.0 | 0.00 | 0.00 | 0.00 | 66 | 1010.8 |
| 20260904184653 | 73 | 117 | 4.0 | 6.0 | 0.00 | 0.00 | 0.00 | 67 | 1011.2 |
| 20260904184153 | 73 | 207 | 6.0 | 7.0 | 0.00 | 0.00 | 0.00 | 67 | 1011.2 |
| 20260904183653 | 73 | 170 | 3.0 | 3.0 | 0.00 | 0.00 | 0.00 | 67 | 1011.2 |
| 20260904183153 | 72 | 331 | 0.0 | 1.0 | 0.00 | 0.00 | 0.00 | 68 | 1011.2 |
| 20260904182653 | 73 | 326 | 2.0 | 4.0 | 0.00 | 0.00 | 0.00 | 67 | 1011.2 |
| 20260904182153 | 72 | 296 | 6.0 | 6.0 | 0.00 | 0.00 | 0.00 | 68 | 1011.2 |
| 20260904181653 | 72 | 250 | 3.0 | 3.0 | 0.00 | 0.00 | 0.00 | 68 | 1011.2 |
| 20260904181153 | 72 | 322 | 0.0 | 1.0 | 0.00 | 0.00 | 0.00 | 67 | 1011.2 |
| 20260904180653 | 72 | 297 | 2.0 | 2.0 | 0.00 | 0.00 | 0.00 | 68 | 1011.2 |
| 20260904180153 | 73 | 305 | 1.0 | 1.0 | 0.00 | 0.00 | 0.00 | 66 | 1011.2 |
| 20260904175653 | 73 | 323 | 0.0 | 0.0 | 0.00 | 0.00 | 0.00 | 65 | 1011.2 |
| 20260904175153 | 73 | 293 | 3.0 | 6.0 | 0.00 | 0.00 | 0.00 | 65 | 1011.2 |
| 20260904174653 | 73 | 322 | 0.0 | 1.0 | 0.00 | 0.00 | 0.00 | 65 | 1011.2 |
| 20260904174153 | 74 | 320 | 1.0 | 1.0 | 0.00 | 0.00 | 0.00 | 65 | 1011.2 |
| 20260904173653 | 74 | 318 | 0.0 | 0.0 | 0.00 | 0.00 | 0.00 | 63 | 1011.2 |
| 20260904173153 | 74 | 329 | 3.0 | 7.0 | 0.00 | 0.00 | 0.00 | 63 | 1011.2 |
| 20260904172653 | 74 | 330 | 2.0 | 3.0 | 0.00 | 0.00 | 0.00 | 62 | 1011.2 |
| 20260904172153 | 75 | 337 | 1.0 | 3.0 | 0.00 | 0.00 | 0.00 | 62 | 1010.8 |
| 20260904171653 | 75 | 296 | 5.0 | 10.0 | 0.00 | 0.00 | 0.00 | 62 | 1010.8 |
| 20260904171153 | 75 | 270 | 3.0 | 4.0 | 0.00 | 0.00 | 0.00 | 63 | 1010.8 |
| 20260904170653 | 75 | 253 | 1.0 | 4.0 | 0.00 | 0.00 | 0.00 | 62 | 1010.8 |
| 20260904170153 | 76 | 322 | 6.0 | 9.0 | 0.00 | 0.00 | 0.00 | 61 | 1011.2 |
| 20260904165653 | 76 | 320 | 1.0 | 1.0 | 0.00 | 0.00 | 0.00 | 61 | 1011.2 |
| 20260904165153 | 76 | 229 | 6.0 | 6.0 | 0.00 | 0.00 | 0.00 | 60 | 1011.2 |
| 20260904164653 | 76 | 211 | 4.0 | 4.0 | 0.00 | 0.00 | 0.00 | 60 | 1011.2 |
| 20260904164153 | 76 | 270 | 5.0 | 5.0 | 0.00 | 0.00 | 0.00 | 60 | 1011.2 |
| 20260904163653 | 76 | 299 | 3.0 | 6.0 | 0.00 | 0.00 | 0.00 | 60 | 1011.2 |
| 20260904163153 | 76 | 297 | 5.0 | 6.0 | 0.00 | 0.00 | 0.00 | 60 | 1011.2 |
| 20260904162653 | 77 | 268 | 6.0 | 7.0 | 0.00 | 0.00 | 0.00 | 59 | 1011.2 |
| 20260904162153 | 77 | 322 | 5.0 | 9.0 | 0.00 | 0.00 | 0.00 | 59 | 1011.2 |
| 20260904161653 | 77 | 272 | 7.0 | 9.0 | 0.00 | 0.00 | 0.00 | 58 | 1011.2 |
| 20260904161153 | 78 | 320 | 7.0 | 9.0 | 0.00 | 0.00 | 0.00 | 58 | 1011.2 |
| 20260904160653 | 78 | 291 | 5.0 | 15.0 | 0.00 | 0.00 | 0.00 | 59 | 1011.2 |
| 20260904160153 | 78 | 292 | 10.0 | 10.0 | 0.00 | 0.00 | 0.00 | 58 | 1011.2 |
| 20260904155653 | 78 | 209 | 10.0 | 14.0 | 0.00 | 0.00 | 0.00 | 58 | 1011.2 |
| 20260904155153 | 78 | 313 | 8.0 | 10.0 | 0.00 | 0.00 | 0.00 | 58 | 1011.2 |
| 20260904154653 | 79 | 290 | 5.0 | 7.0 | 0.00 | 0.00 | 0.00 | 57 | 1011.5 |
| 20260904154153 | 79 | 281 | 8.0 | 13.0 | 0.00 | 0.00 | 0.00 | 56 | 1011.5 |
| 20260904153653 | 79 | 283 | 8.0 | 8.0 | 0.00 | 0.00 | 0.00 | 56 | 1011.5 |
| 20260904153153 | 79 | 301 | 3.0 | 6.0 | 0.00 | 0.00 | 0.00 | 56 | 1011.5 |
| 20260904152653 | 80 | 286 | 11.0 | 11.0 | 0.00 | 0.00 | 0.00 | 55 | 1011.5 |
| 20260904152153 | 79 | 165 | 3.0 | 5.0 | 0.00 | 0.00 | 0.00 | 57 | 1011.5 |
| 20260904151653 | 78 | 149 | 6.0 | 6.0 | 0.00 | 0.00 | 0.00 | 60 | 1011.5 |
| 20260904151153 | 78 | 312 | 1.0 | 4.0 | 0.00 | 0.00 | 0.00 | 60 | 1011.9 |
| 20260904150653 | 78 | 310 | 7.0 | 10.0 | 0.00 | 0.00 | 0.00 | 60 | 1011.9 |
| 20260904150153 | 77 | 235 | 5.0 | 5.0 | 0.00 | 0.00 | 0.00 | 60 | 1012.2 |
| 20260904145653 | 77 | 162 | 6.0 | 6.0 | 0.00 | 0.00 | 0.00 | 60 | 1012.2 |
| 20260904145153 | 76 | 287 | 5.0 | 9.0 | 0.00 | 0.00 | 0.00 | 61 | 1012.2 |
| 20260904144653 | 76 | 273 | 5.0 | 6.0 | 0.00 | 0.00 | 0.00 | 62 | 1012.5 |
| 20260904144153 | 76 | 279 | 9.0 | 13.0 | 0.00 | 0.00 | 0.00 | 61 | 1012.5 |
| 20260904143653 | 76 | 184 | 8.0 | 12.0 | 0.00 | 0.00 | 0.00 | 61 | 1012.5 |
| 20260904143153 | 76 | 236 | 3.0 | 5.0 | 0.00 | 0.00 | 0.00 | 62 | 1012.5 |
| 20260904142653 | 76 | 288 | 8.0 | 11.0 | 0.00 | 0.00 | 0.00 | 61 | 1012.5 |
| 20260904142153 | 76 | 276 | 12.0 | 18.0 | 0.00 | 0.00 | 0.00 | 61 | 1012.5 |
| 20260904141653 | 76 | 199 | 8.0 | 8.0 | 0.00 | 0.00 | 0.00 | 62 | 1012.5 |
| 20260904141153 | 76 | 300 | 4.0 | 6.0 | 0.00 | 0.00 | 0.00 | 61 | 1012.5 |
| 20260904140653 | 76 | 318 | 11.0 | 13.0 | 0.00 | 0.00 | 0.00 | 61 | 1012.5 |
| 20260904140153 | 76 | 292 | 13.0 | 13.0 | 0.00 | 0.00 | 0.00 | 61 | 1012.5 |
| 20260904135653 | 76 | 306 | 6.0 | 6.0 | 0.00 | 0.00 | 0.00 | 61 | 1012.5 |
| 20260904135153 | 76 | 304 | 1.0 | 1.0 | 0.00 | 0.00 | 0.00 | 62 | 1012.5 |
| 20260904134653 | 77 | 267 | 11.0 | 15.0 | 0.00 | 0.00 | 0.00 | 60 | 1013.2 |
| 20260904134153 | 77 | 232 | 6.0 | 6.0 | 0.00 | 0.00 | 0.00 | 59 | 1013.2 |
| 20260904133653 | 78 | 259 | 9.0 | 14.0 | 0.00 | 0.00 | 0.00 | 58 | 1013.2 |
| 20260904133153 | 78 | 176 | 11.0 | 13.0 | 0.00 | 0.00 | 0.00 | 58 | 1013.2 |
| 20260904132653 | 78 | 319 | 11.0 | 12.0 | 0.00 | 0.00 | 0.00 | 58 | 1013.2 |
| 20260904132153 | 78 | 210 | 10.0 | 13.0 | 0.00 | 0.00 | 0.00 | 59 | 1013.6 |
| 20260904131653 | 76 | 315 | 12.0 | 16.0 | 0.00 | 0.00 | 0.00 | 60 | 1013.6 |
| 20260904131153 | 76 | 267 | 6.0 | 9.0 | 0.00 | 0.00 | 0.00 | 60 | 1013.9 |
| 20260904130653 | 75 | 194 | 10.0 | 10.0 | 0.00 | 0.00 | 0.00 | 62 | 1013.9 |
| 20260904130153 | 76 | 287 | 6.0 | 8.0 | 0.00 | 0.00 | 0.00 | 61 | 1013.9 |
| 20260904125653 | 75 | 245 | 4.0 | 5.0 | 0.00 | 0.00 | 0.00 | 62 | 1013.9 |
| 20260904125153 | 75 | 294 | 6.0 | 10.0 | 0.00 | 0.00 | 0.00 | 62 | 1013.9 |
| 20260904124653 | 75 | 293 | 3.0 | 6.0 | 0.00 | 0.00 | 0.00 | 63 | 1013.9 |
| 20260904124153 | 74 | 340 | 6.0 | 16.0 | 0.00 | 0.00 | 0.00 | 64 | 1013.9 |
| 20260904123653 | 74 | 180 | 4.0 | 10.0 | 0.00 | 0.00 | 0.00 | 64 | 1013.9 |
| 20260904123153 | 74 | 280 | 6.0 | 6.0 | 0.00 | 0.00 | 0.00 | 64 | 1013.9 |
| 20260904122653 | 74 | 210 | 10.0 | 10.0 | 0.00 | 0.00 | 0.00 | 64 | 1014.2 |
| 20260904122153 | 74 | 162 | 6.0 | 7.0 | 0.00 | 0.00 | 0.00 | 63 | 1014.2 |
| 20260904121653 | 74 | 324 | 10.0 | 20.0 | 0.00 | 0.00 | 0.00 | 62 | 1014.2 |
| 20260904121153 | 75 | 220 | 9.0 | 12.0 | 0.00 | 0.00 | 0.00 | 62 | 1014.2 |
| 20260904120653 | 75 | 172 | 9.0 | 11.0 | 0.00 | 0.00 | 0.00 | 62 | 1014.2 |
| 20260904120153 | 75 | 228 | 10.0 | 10.0 | 0.00 | 0.00 | 0.00 | 61 | 1014.2 |
| 20260904115653 | 76 | 270 | 3.0 | 6.0 | 0.00 | 0.00 | 0.00 | 60 | 1014.2 |
| 20260904115153 | 77 | 301 | 8.0 | 8.0 | 0.00 | 0.00 | 0.00 | 57 | 1014.6 |
| 20260904114653 | 77 | 246 | 4.0 | 8.0 | 0.00 | 0.00 | 0.00 | 57 | 1014.6 |
| 20260904114153 | 78 | 231 | 10.0 | 13.0 | 0.00 | 0.00 | 0.00 | 56 | 1014.6 |
| 20260904113653 | 77 | 282 | 10.0 | 19.0 | 0.00 | 0.00 | 0.00 | 56 | 1014.6 |
| 20260904113153 | 76 | 278 | 4.0 | 17.0 | 0.00 | 0.00 | 0.00 | 57 | 1014.6 |
| 20260904112653 | 78 | 291 | 7.0 | 12.0 | 0.00 | 0.00 | 0.00 | 55 | 1014.9 |
| 20260904112153 | 76 | 244 | 7.0 | 10.0 | 0.00 | 0.00 | 0.00 | 58 | 1014.9 |
| 20260904111653 | 77 | 180 | 14.0 | 21.0 | 0.00 | 0.00 | 0.00 | 56 | 1015.2 |
| 20260904111153 | 78 | 275 | 6.0 | 7.0 | 0.00 | 0.00 | 0.00 | 55 | 1015.2 |
| 20260904110653 | 77 | 293 | 9.0 | 13.0 | 0.00 | 0.00 | 0.00 | 56 | 1015.2 |
| 20260904110153 | 76 | 180 | 9.0 | 11.0 | 0.00 | 0.00 | 0.00 | 58 | 1015.2 |
| 20260904105653 | 74 | 237 | 15.0 | 15.0 | 0.00 | 0.00 | 0.00 | 59 | 1015.2 |
| 20260904105153 | 74 | 287 | 10.0 | 11.0 | 0.00 | 0.00 | 0.00 | 60 | 1015.2 |
| 20260904104653 | 75 | 286 | 8.0 | 9.0 | 0.00 | 0.00 | 0.00 | 60 | 1015.2 |